User: anonymous
Location: Washington
(38.8950°N, 77.0370°W)
Time: 22:12:18
(UTC-04:00)
Language:

IDEFIX/ARIANE 42P - Orbit

View from above orbital plane
View from above orbital plane
View from above satellite
View from above satellite

Ground track
Ground track

The orbit data is extracted from the following two-line orbital elements,

1 27422U 02021B   14241.33377079  .00000085  00000-0  49904-4 0  5701
2 27422 098.2942 280.3219 0012659 033.4853 024.5583 14.29043072640589
Epoch (UTC): 29 August 2014 08:00:37
Eccentricity: 0.0012659
inclination: 98.2942°
perigee height: 786 km
apogee height: 804 km
right ascension of ascending node: 280.3219°
argument of perigee: 33.4853°
revolutions per day: 14.29043072
mean anomaly at epoch: 24.5583°
orbit number at epoch: 64058

The dashed part of the orbit path shows where the satellite is in the earth's shadow,  

DLR